Location: Palomar Mountain Lodge
(33.3110°N, 116.8495°W)
Time: 14:56:43
(UTC-07:00)

Cosmos 1544 Rocket - Pass Details

Date: 19 May 2017
Orbit: 604 x 632 km, 82.5° (Epoch: 24 May)

Event Time Altitude Azimuth Distance (km) Brightness Sun altitude
Rises 20:52:02 0° 1° (N) 2,862 7.5 -13.2°
Reaches altitude 10° 20:54:20 10° 7° (N) 1,953 6.5 -13.6°
Maximum altitude 20:58:29 45° 81° (E) 824 3.9 -14.3°
Enters shadow 21:00:44 24° 142° (SE) 1,267 4.6 -14.7°
